"Platform","Saginaw Bay ReCON Buoy"
"NDBC ID","45163"
"Latitude (deg)",43.985
"Longitude (deg)",-83.595
"Water Depth (m)",14
"Sensor Device","System Power Controller board voltage input"
"Sensor Type","Voltage to underwater hub"
"Sensor Units","voltage"
"Measurement","A sample"
"Time means","Time at sample (UTC time zone)"

"Note:","This data was collected for research purposes."
"Note:","Minimal quality checking has been performed so data may contain known or unknown errors."
"Note:","Data provided by NOAA. Please credit NOAA."
"Note:","For more info see www.glerl.noaa.gov/res/recon"

"Time (UTC)","To U/W Hub"
"YYYY/MM/DD HH:MM","volts"
2016/05/18 16:58, 50.40
2016/05/18 17:18, 50.48
2016/05/18 17:38, 50.50
2016/05/18 17:58, 50.51
2016/05/18 18:18, 50.52
2016/05/18 18:38, 50.51
2016/05/18 18:58, 50.50
2016/05/18 19:18, 50.52
2016/05/18 19:38, 50.51
2016/05/18 19:58, 50.51
2016/05/18 20:18, 50.51
2016/05/18 20:38, 50.52
2016/05/18 20:58, 50.52
2016/05/18 21:18, 50.51
2016/05/18 21:38, 50.51
2016/05/18 21:58, 50.51
2016/05/18 22:18, 50.52
2016/05/18 22:38, 50.49
2016/05/18 22:58, 50.52
2016/05/18 23:18, 50.51
2016/05/18 23:38, 50.52
2016/05/18 23:58, 50.52
2016/05/19 00:18, 50.54
2016/05/19 00:38, 50.63
2016/05/19 00:58, 50.59
2016/05/19 01:18, 50.59
2016/05/19 01:38, 50.59
2016/05/19 01:58, 50.59
2016/05/19 02:18, 50.58
2016/05/19 02:38, 50.59
2016/05/19 02:58, 50.59
2016/05/19 03:18, 50.62
2016/05/19 03:38, 50.59
2016/05/19 03:58, 50.60
2016/05/19 04:18, 50.59
2016/05/19 04:38, 50.59
2016/05/19 04:58, 50.61
2016/05/19 05:18, 50.62
2016/05/19 05:38, 50.61
2016/05/19 05:58, 50.61
2016/05/19 06:18, 50.61
2016/05/19 06:38, 50.61
2016/05/19 06:58, 50.62
2016/05/19 07:18, 50.61
2016/05/19 07:38, 50.63
2016/05/19 07:58, 50.62
2016/05/19 08:18, 50.61
2016/05/19 08:38, 50.60
2016/05/19 08:58, 50.62
2016/05/19 09:18, 50.61
2016/05/19 09:38, 50.62
2016/05/19 09:58, 50.61
2016/05/19 10:18, 50.63
2016/05/19 10:38, 50.41
2016/05/19 10:58, 49.94
2016/05/19 11:18, 46.81
2016/05/19 11:38, 46.37
2016/05/19 11:58, 46.10
2016/05/19 12:18, 46.59
2016/05/19 12:38, 46.54
2016/05/19 12:58, 49.79
2016/05/19 13:18, 49.67
2016/05/19 13:38, 49.99
2016/05/19 13:58, 50.03
2016/05/19 14:18, 50.25
2016/05/19 14:38, 50.28
2016/05/19 14:58, 50.34
2016/05/19 15:18, 50.44
2016/05/19 15:38, 50.46
2016/05/19 15:58, 50.47
2016/05/19 16:18, 50.47
2016/05/19 16:38, 48.60
2016/05/19 16:58, 49.70
2016/05/19 17:18, 50.03
2016/05/19 17:38, 50.03
2016/05/19 17:58, 49.97
2016/05/19 18:18, 50.48
2016/05/19 18:38, 50.38
2016/05/19 18:58, 50.43
2016/05/19 19:18, 50.48
2016/05/19 19:38, 50.24
2016/05/19 19:58, 50.48
2016/05/19 20:18, 50.48
2016/05/19 20:38, 50.48
2016/05/19 20:58, 50.18
2016/05/19 21:18, 50.10
2016/05/19 21:38, 50.17
2016/05/19 21:58, 50.16
2016/05/19 22:18, 50.17
2016/05/19 22:38, 50.19
2016/05/19 22:58, 50.14
2016/05/19 23:18, 50.23
2016/05/19 23:38, 50.29
2016/05/19 23:58, 50.45
2016/05/20 00:18, 50.49
2016/05/20 00:38, 50.54
2016/05/20 00:58, 50.55
2016/05/20 01:18, 50.57
2016/05/20 01:38, 50.54
2016/05/20 01:58, 50.57
2016/05/20 02:18, 50.58
2016/05/20 02:38, 50.58
2016/05/20 02:58, 50.57
2016/05/20 03:18, 50.59
2016/05/20 03:38, 50.59
2016/05/20 03:58, 50.59
2016/05/20 04:18, 50.59
2016/05/20 04:38, 50.60
2016/05/20 04:58, 50.58
2016/05/20 05:18, 50.59
2016/05/20 05:38, 50.59
2016/05/20 05:58, 50.60
2016/05/20 06:18, 50.59
2016/05/20 06:38, 50.59
2016/05/20 06:58, 50.58
2016/05/20 07:18, 50.59
2016/05/20 07:38, 50.60
2016/05/20 07:58, 50.59
2016/05/20 08:18, 50.60
2016/05/20 08:38, 50.59
2016/05/20 08:58, 50.59
2016/05/20 09:18, 50.58
2016/05/20 09:38, 50.59
2016/05/20 09:58, 50.57
2016/05/20 10:18, 50.61
2016/05/20 10:38, 50.62
2016/05/20 10:58, 50.01
2016/05/20 11:18, 48.53
2016/05/20 11:38, 47.00
2016/05/20 11:58, 46.44
2016/05/20 12:18, 46.57
2016/05/20 12:38, 46.58
2016/05/20 12:58, 46.63
2016/05/20 13:18, 46.51
2016/05/20 13:38, 47.07
2016/05/20 13:58, 46.88
2016/05/20 14:18, 46.70
2016/05/20 14:38, 47.00
2016/05/20 14:58, 47.28
2016/05/20 15:18, 50.38
2016/05/20 15:38, 50.46
2016/05/20 15:58, 50.45
2016/05/20 16:18, 50.45
2016/05/20 16:38, 50.46
2016/05/20 16:58, 50.39
2016/05/20 17:18, 50.46
2016/05/20 17:38, 50.46
2016/05/20 17:58, 50.46
2016/05/20 18:18, 50.46
2016/05/20 18:38, 50.46
2016/05/20 18:58, 50.47
2016/05/20 19:18, 50.48
2016/05/20 19:38, 50.48
2016/05/20 19:58, 50.48
2016/05/20 20:18, 50.49
2016/05/20 20:38, 50.49
2016/05/20 20:58, 50.49
2016/05/20 21:18, 50.49
2016/05/20 21:38, 50.50
2016/05/20 21:58, 50.56
2016/05/20 22:18, 50.57
2016/05/20 22:38, 50.59
2016/05/20 22:58, 50.63
2016/05/20 23:18, 50.64
2016/05/20 23:38, 50.61
2016/05/20 23:58, 50.61
2016/05/21 00:18, 50.56
2016/05/21 00:38, 50.58
2016/05/21 00:58, 50.53
2016/05/21 01:18, 50.58
2016/05/21 01:38, 50.54
2016/05/21 01:58, 50.58
2016/05/21 02:18, 50.59
2016/05/21 02:38, 50.59
2016/05/21 02:58, 50.59
2016/05/21 03:18, 50.58
2016/05/21 03:38, 50.58
2016/05/21 03:58, 50.58
2016/05/21 04:18, 50.57
2016/05/21 04:38, 50.58
2016/05/21 04:58, 50.59
2016/05/21 05:18, 50.55
2016/05/21 05:38, 50.59
2016/05/21 05:58, 50.57
2016/05/21 06:18, 50.54
2016/05/21 06:38, 50.57
2016/05/21 06:58, 50.58
2016/05/21 07:18, 50.58
2016/05/21 07:38, 50.59
2016/05/21 07:58, 50.59
2016/05/21 08:18, 50.59
2016/05/21 08:38, 50.57
2016/05/21 08:58, 50.58
2016/05/21 09:18, 50.60
2016/05/21 09:38, 50.57
2016/05/21 09:58, 50.59
2016/05/21 10:18, 50.58
2016/05/21 10:38, 50.60
2016/05/21 10:58, 50.58
2016/05/21 11:18, 50.60
2016/05/21 11:38, 50.60
2016/05/21 11:58, 50.60
2016/05/21 12:18, 50.64
2016/05/21 12:38, 50.60
2016/05/21 12:58, 50.66
2016/05/21 13:18, 50.66
2016/05/21 13:38, 50.60
2016/05/21 13:58, 50.50
2016/05/21 14:18, 50.31
2016/05/21 14:38, 48.22
2016/05/21 14:58, 50.05
2016/05/21 15:18, 50.20
2016/05/21 15:38, 50.27
2016/05/21 15:58, 50.16
2016/05/21 16:18, 50.34
2016/05/21 16:38, 50.21
2016/05/21 16:58, 50.27
2016/05/21 17:18, 50.40
2016/05/21 17:38, 50.41
2016/05/21 17:58, 47.82
2016/05/21 18:18, 50.47
2016/05/21 18:38, 50.48
2016/05/21 18:58, 50.47
2016/05/21 19:18, 50.48
2016/05/21 19:38, 50.49
2016/05/21 19:58, 50.48
2016/05/21 20:18, 50.49
2016/05/21 20:38, 50.48
2016/05/21 20:58, 50.49
2016/05/21 21:18, 50.47
2016/05/21 21:38, 50.46
2016/05/21 21:58, 50.45
2016/05/21 22:18, 50.46
2016/05/21 22:38, 50.45
2016/05/21 22:58, 50.45
2016/05/21 23:18, 50.45
2016/05/21 23:38, 50.45
2016/05/21 23:58, 50.46
2016/05/22 00:18, 50.46
2016/05/22 00:38, 50.52
2016/05/22 00:58, 50.48
2016/05/22 01:18, 50.51
2016/05/22 01:38, 50.51
2016/05/22 01:58, 50.47
2016/05/22 02:18, 50.54
2016/05/22 02:38, 50.57
2016/05/22 02:58, 50.55
2016/05/22 03:18, 50.56
2016/05/22 03:38, 50.56
2016/05/22 03:58, 50.56
2016/05/22 04:18, 50.58
2016/05/22 04:38, 50.58
2016/05/22 04:58, 50.57
2016/05/22 05:18, 50.57
2016/05/22 05:38, 50.59
2016/05/22 05:58, 50.58
2016/05/22 06:18, 50.58
2016/05/22 06:38, 50.59
2016/05/22 06:58, 50.58
2016/05/22 07:18, 50.57
2016/05/22 07:38, 50.59
2016/05/22 07:58, 50.59
2016/05/22 08:18, 50.60
2016/05/22 08:38, 50.56
2016/05/22 08:58, 50.58
2016/05/22 09:18, 50.60
2016/05/22 09:38, 50.58
2016/05/22 09:58, 50.59
2016/05/22 10:18, 50.56
2016/05/22 10:38, 50.65
2016/05/22 10:58, 50.20
2016/05/22 11:18, 49.30
2016/05/22 11:38, 48.77
2016/05/22 11:58, 48.20
2016/05/22 12:18, 49.37
2016/05/22 12:38, 49.07
2016/05/22 12:58, 49.15
2016/05/22 13:18, 49.38
2016/05/22 13:38, 49.48
2016/05/22 13:58, 49.93
2016/05/22 14:18, 47.72
2016/05/22 14:38, 47.91
2016/05/22 14:58, 49.01
2016/05/22 15:18, 50.33
2016/05/22 15:38, 50.25
2016/05/22 15:58, 50.39
2016/05/22 16:18, 50.50
2016/05/22 16:38, 50.50
2016/05/22 16:58, 50.51
2016/05/22 17:18, 50.52
2016/05/22 17:38, 50.52
2016/05/22 17:58, 50.53
2016/05/22 18:18, 50.41
2016/05/22 18:38, 50.51
2016/05/22 18:58, 50.52
2016/05/22 19:18, 50.51
2016/05/22 19:38, 50.51
2016/05/22 19:58, 50.52
2016/05/22 20:18, 50.51
2016/05/22 20:38, 50.51
2016/05/22 20:58, 50.51
2016/05/22 21:18, 50.51
2016/05/22 21:38, 50.50
2016/05/22 21:58, 50.49
2016/05/22 22:18, 50.50
2016/05/22 22:38, 50.51
2016/05/22 22:58, 50.50
2016/05/22 23:18, 50.51
2016/05/22 23:38, 50.51
2016/05/22 23:58, 50.51
2016/05/23 00:18, 50.49
2016/05/23 00:38, 50.53
2016/05/23 00:58, 50.59
2016/05/23 01:18, 50.59
2016/05/23 01:38, 50.58
2016/05/23 01:58, 50.59
2016/05/23 02:18, 50.61
2016/05/23 02:38, 50.60
2016/05/23 02:58, 50.61
2016/05/23 03:18, 50.60
2016/05/23 03:38, 50.59
2016/05/23 03:58, 50.61
2016/05/23 04:18, 50.61
2016/05/23 04:38, 50.61
2016/05/23 04:58, 50.61
2016/05/23 05:18, 50.62
2016/05/23 05:38, 50.56
2016/05/23 05:58, 50.62
2016/05/23 06:18, 50.61
2016/05/23 06:38, 50.59
2016/05/23 06:58, 50.61
2016/05/23 07:18, 50.62
2016/05/23 07:38, 50.60
2016/05/23 07:58, 50.61
2016/05/23 08:18, 50.61
2016/05/23 08:38, 50.61
2016/05/23 08:58, 50.60
2016/05/23 09:18, 50.61
2016/05/23 09:38, 50.59
2016/05/23 09:58, 50.58
2016/05/23 10:18, 50.64
2016/05/23 10:38, 50.69
2016/05/23 10:58, 48.95
2016/05/23 11:18, 49.51
2016/05/23 11:38, 47.32
2016/05/23 11:58, 46.76
2016/05/23 12:18, 46.89
2016/05/23 12:38, 47.33
2016/05/23 12:58, 47.83
2016/05/23 13:18, 46.84
2016/05/23 13:38, 46.97
2016/05/23 13:58, 46.61
2016/05/23 14:18, 46.80
2016/05/23 14:38, 47.31
2016/05/23 14:58, 47.73
2016/05/23 15:18, 50.25
2016/05/23 15:38, 50.33
2016/05/23 15:58, 47.51
2016/05/23 16:18, 47.69
2016/05/23 16:38, 47.91
2016/05/23 16:58, 48.25
2016/05/23 17:18, 48.29
2016/05/23 17:38, 48.26
2016/05/23 17:58, 48.44
2016/05/23 18:18, 48.44
2016/05/23 18:38, 49.91
2016/05/23 18:58, 48.35
2016/05/23 19:18, 48.16
2016/05/23 19:38, 48.30
2016/05/23 19:58, 50.09
2016/05/23 20:18, 47.98
2016/05/23 20:38, 48.14
2016/05/23 20:58, 47.67
2016/05/23 21:18, 48.00
2016/05/23 21:38, 50.15
2016/05/23 21:58, 47.81
2016/05/23 22:18, 47.94
2016/05/23 22:38, 48.25
2016/05/23 22:58, 48.06
2016/05/23 23:18, 48.08
2016/05/23 23:38, 49.99
2016/05/23 23:58, 50.12
2016/05/24 00:18, 50.19
2016/05/24 00:38, 50.62
2016/05/24 00:58, 50.52
2016/05/24 01:18, 50.50
2016/05/24 01:38, 50.53
2016/05/24 01:58, 50.52
2016/05/24 02:18, 50.53
2016/05/24 02:38, 50.54
2016/05/24 02:58, 50.54
2016/05/24 03:18, 50.54
2016/05/24 03:38, 50.53
2016/05/24 03:58, 50.54
2016/05/24 04:18, 50.53
2016/05/24 04:38, 50.56
2016/05/24 04:58, 50.55
2016/05/24 05:18, 50.54
2016/05/24 05:38, 50.55
2016/05/24 05:58, 50.56
2016/05/24 06:18, 50.57
2016/05/24 06:38, 50.56
2016/05/24 06:58, 50.57
2016/05/24 07:18, 50.57
2016/05/24 07:38, 50.57
2016/05/24 07:58, 50.59
2016/05/24 08:18, 50.59
2016/05/24 08:38, 50.57
2016/05/24 08:58, 50.57
2016/05/24 09:18, 50.57
2016/05/24 09:38, 50.58
2016/05/24 09:58, 50.58
2016/05/24 10:18, 50.57
2016/05/24 10:38, 50.61
2016/05/24 10:58, 50.63
2016/05/24 11:18, 49.51
2016/05/24 11:38, 47.82
2016/05/24 11:58, 47.16
2016/05/24 12:18, 46.68
2016/05/24 12:38, 46.81
2016/05/24 12:58, 46.48
2016/05/24 13:18, 46.43
2016/05/24 13:38, 46.46
2016/05/24 13:58, 46.56
2016/05/24 14:18, 46.61
2016/05/24 14:38, 46.90
2016/05/24 14:58, 46.90
2016/05/24 15:18, 47.07
2016/05/24 15:38, 47.20
2016/05/24 15:58, 47.68
2016/05/24 16:18, 47.80
2016/05/24 16:38, 48.27
2016/05/24 16:58, 48.11
2016/05/24 17:18, 48.17
2016/05/24 17:38, 48.37
2016/05/24 17:58, 48.56
2016/05/24 18:18, 48.15
2016/05/24 18:38, 48.30
2016/05/24 18:58, 47.85
2016/05/24 19:18, 48.14
2016/05/24 19:38, 49.57
2016/05/24 19:58, 50.25
2016/05/24 20:18, 50.13
2016/05/24 20:38, 50.43
2016/05/24 20:58, 50.28
2016/05/24 21:18, 50.27
2016/05/24 21:38, 50.23
2016/05/24 21:58, 50.10
2016/05/24 22:18, 50.10
2016/05/24 22:38, 50.13
2016/05/24 22:58, 48.58
2016/05/24 23:18, 50.06
2016/05/24 23:38, 50.46
2016/05/24 23:58, 50.50
2016/05/25 00:18, 50.48
2016/05/25 00:38, 50.47
2016/05/25 00:58, 50.49
2016/05/25 01:18, 50.49
2016/05/25 01:38, 50.50
2016/05/25 01:58, 50.50
2016/05/25 02:18, 50.52
2016/05/25 02:38, 50.51
2016/05/25 02:58, 50.51
2016/05/25 03:18, 50.51
2016/05/25 03:38, 50.53
2016/05/25 03:58, 50.52
2016/05/25 04:18, 50.53
2016/05/25 04:38, 50.51
2016/05/25 04:58, 50.51
2016/05/25 05:18, 50.51
2016/05/25 05:38, 50.51
2016/05/25 05:58, 50.53
2016/05/25 06:18, 50.51
2016/05/25 06:38, 50.53
2016/05/25 06:58, 50.53
2016/05/25 07:18, 50.51
2016/05/25 07:38, 50.54
2016/05/25 07:58, 50.51
2016/05/25 08:18, 50.56
2016/05/25 08:38, 50.53
2016/05/25 08:58, 50.54
2016/05/25 09:18, 50.54
2016/05/25 09:38, 50.52
2016/05/25 09:58, 50.54
2016/05/25 10:18, 50.54
2016/05/25 10:38, 50.60
2016/05/25 10:58, 49.50
2016/05/25 11:18, 48.05
2016/05/25 11:38, 49.11
2016/05/25 11:58, 46.69
2016/05/25 12:18, 46.51
2016/05/25 12:38, 47.34
2016/05/25 12:58, 46.62
2016/05/25 13:18, 47.44
2016/05/25 13:38, 48.15
2016/05/25 13:58, 46.52
2016/05/25 14:18, 46.67
2016/05/25 14:38, 47.16
2016/05/25 14:58, 47.42
2016/05/25 15:18, 47.37
2016/05/25 15:38, 46.68
2016/05/25 15:58, 47.03
2016/05/25 16:18, 47.07
2016/05/25 16:38, 47.73
2016/05/25 16:58, 47.59
2016/05/25 17:18, 47.85
2016/05/25 17:38, 48.90
2016/05/25 17:58, 47.61
2016/05/25 18:18, 47.34
2016/05/25 18:38, 47.80
2016/05/25 18:58, 48.32
2016/05/25 19:18, 50.13
2016/05/25 19:38, 50.19
2016/05/25 19:58, 50.41
2016/05/25 20:18, 50.47
2016/05/25 20:38, 50.50
2016/05/25 20:58, 50.49
2016/05/25 21:18, 50.28
2016/05/25 21:38, 50.39
2016/05/25 21:58, 50.49
2016/05/25 22:18, 50.45
2016/05/25 22:38, 50.45
2016/05/25 22:58, 50.41
2016/05/25 23:18, 50.65
2016/05/25 23:38, 50.64
2016/05/25 23:58, 50.61
2016/05/26 00:18, 50.61
2016/05/26 00:38, 50.56
2016/05/26 00:58, 50.58
2016/05/26 01:18, 50.55
2016/05/26 01:38, 50.59
2016/05/26 01:58, 50.58
2016/05/26 02:18, 50.55
2016/05/26 02:38, 50.59
2016/05/26 02:58, 50.59
2016/05/26 03:18, 50.50
2016/05/26 03:38, 50.58
2016/05/26 03:58, 50.56
2016/05/26 04:18, 50.58
2016/05/26 04:38, 50.58
2016/05/26 04:58, 50.58
2016/05/26 05:18, 50.58
2016/05/26 05:38, 50.59
2016/05/26 05:58, 50.58
2016/05/26 06:18, 50.58
2016/05/26 06:38, 50.58
2016/05/26 06:58, 50.57
2016/05/26 07:18, 50.58
2016/05/26 07:38, 50.56
2016/05/26 07:58, 50.59
2016/05/26 08:18, 50.57
2016/05/26 08:38, 50.56
2016/05/26 08:58, 50.56
2016/05/26 09:18, 50.55
2016/05/26 09:38, 50.54
2016/05/26 09:58, 50.55
2016/05/26 10:18, 50.57
2016/05/26 10:38, 50.57
2016/05/26 10:58, 50.57
2016/05/26 11:18, 50.64
2016/05/26 11:38, 50.61
2016/05/26 11:58, 50.61
2016/05/26 12:18, 49.13
2016/05/26 12:38, 50.59
2016/05/26 12:58, 50.60
2016/05/26 13:18, 50.61
2016/05/26 13:38, 50.62
2016/05/26 13:58, 50.63
2016/05/26 14:18, 46.74
2016/05/26 14:38, 47.77
2016/05/26 14:58, 46.59
2016/05/26 15:18, 47.69
2016/05/26 15:38, 47.46
2016/05/26 15:58, 47.62
2016/05/26 16:18, 46.86
2016/05/26 16:38, 47.03
2016/05/26 16:58, 48.84
2016/05/26 17:18, 47.62
2016/05/26 17:38, 47.69
2016/05/26 17:58, 47.70
2016/05/26 18:18, 47.80
2016/05/26 18:38, 47.64
2016/05/26 18:58, 47.65
2016/05/26 19:18, 47.58
2016/05/26 19:38, 47.39
2016/05/26 19:58, 47.49
2016/05/26 20:18, 47.56
2016/05/26 20:38, 47.28
2016/05/26 20:58, 47.53
2016/05/26 21:18, 50.42
2016/05/26 21:38, 50.27
2016/05/26 21:58, 47.20
2016/05/26 22:18, 47.23
2016/05/26 22:38, 47.75
2016/05/26 22:58, 47.94
2016/05/26 23:18, 50.49
2016/05/26 23:38, 50.41
2016/05/26 23:58, 50.07
2016/05/27 00:18, 50.39
2016/05/27 00:38, 50.47
2016/05/27 00:58, 50.49
2016/05/27 01:18, 50.47
2016/05/27 01:38, 50.48
2016/05/27 01:58, 50.50
2016/05/27 02:18, 50.49
2016/05/27 02:38, 50.50
2016/05/27 02:58, 50.49
2016/05/27 03:18, 50.48
2016/05/27 03:38, 50.47
2016/05/27 03:58, 50.51
2016/05/27 04:18, 50.51
2016/05/27 04:38, 50.51
2016/05/27 04:58, 50.52
2016/05/27 05:18, 50.52
2016/05/27 05:38, 50.53
2016/05/27 05:58, 50.52
2016/05/27 06:18, 50.53
2016/05/27 06:38, 50.52
2016/05/27 06:58, 50.55
2016/05/27 07:18, 50.55
2016/05/27 07:38, 50.53
2016/05/27 07:58, 50.51
2016/05/27 08:18, 50.53
2016/05/27 08:38, 50.54
2016/05/27 08:58, 50.51
2016/05/27 09:18, 50.51
2016/05/27 09:38, 50.52
2016/05/27 09:58, 50.52
2016/05/27 10:18, 50.54
2016/05/27 10:38, 50.63
2016/05/27 10:58, 48.98
2016/05/27 11:18, 47.71
2016/05/27 11:38, 46.62
2016/05/27 11:58, 46.50
2016/05/27 12:18, 46.23
2016/05/27 12:38, 46.21
2016/05/27 12:58, 46.45
2016/05/27 13:18, 46.39
2016/05/27 13:38, 46.13
2016/05/27 13:58, 46.20
2016/05/27 14:18, 46.53
2016/05/27 14:38, 46.29
2016/05/27 14:58, 46.23
2016/05/27 15:18, 46.50
2016/05/27 15:38, 47.31
2016/05/27 15:58, 47.97
2016/05/27 16:18, 46.40
2016/05/27 16:38, 46.31
2016/05/27 16:58, 47.31
2016/05/27 17:18, 47.08
2016/05/27 17:38, 47.56
2016/05/27 17:58, 47.60
2016/05/27 18:18, 47.87
2016/05/27 18:38, 47.92
2016/05/27 18:58, 47.53
2016/05/27 19:18, 47.56
2016/05/27 19:38, 47.68
2016/05/27 19:58, 47.30
2016/05/27 20:18, 47.49
2016/05/27 20:38, 47.43
2016/05/27 20:58, 50.41
2016/05/27 21:18, 47.97
2016/05/27 21:38, 48.17
2016/05/27 21:58, 50.13
2016/05/27 22:18, 50.41
2016/05/27 22:38, 50.63
2016/05/27 22:58, 50.60
2016/05/27 23:18, 50.56
2016/05/27 23:38, 50.53
2016/05/27 23:58, 50.57
2016/05/28 00:18, 50.55
2016/05/28 00:38, 50.52
2016/05/28 00:58, 50.52
2016/05/28 01:18, 50.51
2016/05/28 01:38, 50.50
2016/05/28 01:58, 50.51
2016/05/28 02:18, 50.52
2016/05/28 02:38, 50.53
2016/05/28 02:58, 50.54
2016/05/28 03:18, 50.55
2016/05/28 03:38, 50.55
2016/05/28 03:58, 50.54
2016/05/28 04:18, 50.52
2016/05/28 04:38, 50.53
2016/05/28 04:58, 50.53
2016/05/28 05:18, 50.53
2016/05/28 05:38, 50.53
2016/05/28 05:58, 50.54
2016/05/28 06:18, 50.51
2016/05/28 06:38, 50.50
2016/05/28 06:58, 50.49
2016/05/28 07:18, 50.49
2016/05/28 07:38, 50.49
2016/05/28 07:58, 50.50
2016/05/28 08:18, 50.51
2016/05/28 08:38, 50.50
2016/05/28 08:58, 50.48
2016/05/28 09:18, 50.49
2016/05/28 09:38, 50.50
2016/05/28 09:58, 50.51
2016/05/28 10:18, 50.53
2016/05/28 10:38, 50.63
2016/05/28 10:58, 50.00
2016/05/28 11:18, 49.10
2016/05/28 11:38, 47.81
2016/05/28 11:58, 46.45
2016/05/28 12:18, 46.67
2016/05/28 12:38, 46.90
2016/05/28 12:58, 46.29
2016/05/28 13:18, 50.10
2016/05/28 13:38, 49.58
2016/05/28 13:58, 50.55
2016/05/28 14:18, 50.08
2016/05/28 14:38, 47.09
2016/05/28 14:58, 49.13
2016/05/28 15:18, 47.35
2016/05/28 15:38, 47.10
2016/05/28 15:58, 47.59
2016/05/28 16:18, 49.46
2016/05/28 16:38, 49.77
2016/05/28 16:58, 48.75
2016/05/28 17:18, 49.31
2016/05/28 17:38, 48.55
2016/05/28 17:58, 47.19
2016/05/28 18:18, 47.49
2016/05/28 18:38, 47.06
2016/05/28 18:58, 47.37
2016/05/28 19:18, 47.31
2016/05/28 19:38, 50.20
2016/05/28 19:58, 47.15
2016/05/28 20:18, 47.16
2016/05/28 20:38, 50.19
2016/05/28 20:58, 47.05
2016/05/28 21:18, 47.65
2016/05/28 21:38, 47.44
2016/05/28 21:58, 47.60
2016/05/28 22:18, 47.17
2016/05/28 22:38, 47.60
2016/05/28 22:58, 47.69
2016/05/28 23:18, 47.91
2016/05/28 23:38, 50.11
2016/05/28 23:58, 50.16
2016/05/29 00:18, 50.55
2016/05/29 00:38, 50.55
2016/05/29 00:58, 50.46
2016/05/29 01:18, 50.46
2016/05/29 01:38, 50.48
2016/05/29 01:58, 50.49
2016/05/29 02:18, 50.49
2016/05/29 02:38, 50.49
2016/05/29 02:58, 50.49
2016/05/29 03:18, 50.51
2016/05/29 03:38, 50.52
2016/05/29 03:58, 50.52
2016/05/29 04:18, 50.51
2016/05/29 04:38, 50.50
2016/05/29 04:58, 50.50
2016/05/29 05:18, 50.51
2016/05/29 05:38, 50.50
2016/05/29 05:58, 50.52
2016/05/29 06:18, 50.53
2016/05/29 06:38, 50.53
2016/05/29 06:58, 50.52
2016/05/29 07:18, 50.51
2016/05/29 07:38, 50.49
2016/05/29 07:58, 50.49
2016/05/29 08:18, 50.51
2016/05/29 08:38, 50.49
2016/05/29 08:58, 50.51
2016/05/29 09:18, 50.51
2016/05/29 09:38, 50.50
2016/05/29 09:58, 50.49
2016/05/29 10:18, 50.50
2016/05/29 10:38, 50.51
2016/05/29 10:58, 50.51
2016/05/29 11:18, 50.50
2016/05/29 11:38, 50.53
2016/05/29 11:58, 50.52
2016/05/29 12:18, 50.58
2016/05/29 12:38, 46.78
2016/05/29 12:58, 47.16
2016/05/29 13:18, 48.09
2016/05/29 13:38, 46.01
2016/05/29 13:58, 46.39
2016/05/29 14:18, 47.05
2016/05/29 14:38, 46.98
2016/05/29 14:58, 48.95
2016/05/29 15:18, 46.60
2016/05/29 15:38, 48.67
2016/05/29 15:58, 47.41
2016/05/29 16:18, 47.28
2016/05/29 16:38, 47.88
2016/05/29 16:58, 48.01
2016/05/29 17:18, 48.26
2016/05/29 17:38, 48.27
2016/05/29 17:58, 48.51
2016/05/29 18:18, 48.04
2016/05/29 18:38, 47.80
2016/05/29 18:58, 47.47
2016/05/29 19:18, 47.56
2016/05/29 19:38, 47.43
2016/05/29 19:58, 47.48
2016/05/29 20:18, 48.59
2016/05/29 20:38, 47.55
2016/05/29 20:58, 47.96
2016/05/29 21:18, 50.04
2016/05/29 21:38, 47.50
2016/05/29 21:58, 47.88
2016/05/29 22:18, 47.78
2016/05/29 22:38, 50.46
2016/05/29 22:58, 48.35
2016/05/29 23:18, 49.98
2016/05/29 23:38, 50.00
2016/05/29 23:58, 50.12
2016/05/30 00:18, 50.16
2016/05/30 00:38, 50.47
2016/05/30 00:58, 50.48
2016/05/30 01:18, 50.47
2016/05/30 01:38, 50.46
2016/05/30 01:58, 50.47
2016/05/30 02:18, 50.49
2016/05/30 02:38, 50.48
2016/05/30 02:58, 50.48
2016/05/30 03:18, 50.50
2016/05/30 03:38, 50.50
2016/05/30 03:58, 50.48
2016/05/30 04:18, 50.48
2016/05/30 04:38, 50.48
2016/05/30 04:58, 50.51
2016/05/30 05:18, 50.50
2016/05/30 05:38, 50.51
2016/05/30 05:58, 50.50
2016/05/30 06:18, 50.50
2016/05/30 06:38, 50.50
2016/05/30 06:58, 50.52
2016/05/30 07:18, 50.46
2016/05/30 07:38, 50.52
2016/05/30 07:58, 50.49
2016/05/30 08:18, 50.51
2016/05/30 08:38, 50.50
2016/05/30 08:58, 50.49
2016/05/30 09:18, 50.50
2016/05/30 09:38, 50.53
2016/05/30 09:58, 50.52
2016/05/30 10:18, 50.61
2016/05/30 10:38, 49.80
2016/05/30 10:58, 48.14
2016/05/30 11:18, 46.90
2016/05/30 11:38, 46.60
2016/05/30 11:58, 45.91
2016/05/30 12:18, 45.66
2016/05/30 12:38, 46.42
2016/05/30 12:58, 46.67
2016/05/30 13:18, 46.75
2016/05/30 13:38, 46.80
2016/05/30 13:58, 46.88
2016/05/30 14:18, 47.24
2016/05/30 14:38, 47.32
2016/05/30 14:58, 47.32
2016/05/30 15:18, 47.32
2016/05/30 15:38, 47.44
2016/05/30 15:58, 47.57
2016/05/30 16:18, 47.35
2016/05/30 16:38, 47.74
2016/05/30 16:58, 47.53
2016/05/30 17:18, 47.21
2016/05/30 17:38, 49.95
2016/05/30 17:58, 50.26
2016/05/30 18:18, 48.50
2016/05/30 18:38, 47.59
2016/05/30 18:58, 50.17
2016/05/30 19:18, 50.28
2016/05/30 19:38, 50.29
2016/05/30 19:58, 47.48
2016/05/30 20:18, 47.56
2016/05/30 20:38, 47.43
2016/05/30 20:58, 47.48
2016/05/30 21:18, 47.72
2016/05/30 21:38, 47.81
2016/05/30 21:58, 49.82
2016/05/30 22:18, 47.76
2016/05/30 22:38, 47.83
2016/05/30 22:58, 47.77
2016/05/30 23:18, 48.19
2016/05/30 23:38, 47.95
2016/05/30 23:58, 49.82
2016/05/31 00:18, 50.18
2016/05/31 00:38, 50.45
2016/05/31 00:58, 50.55
2016/05/31 01:18, 50.46
2016/05/31 01:38, 50.48
2016/05/31 01:58, 50.48
2016/05/31 02:18, 50.48
2016/05/31 02:38, 50.50
2016/05/31 02:58, 50.51
2016/05/31 03:18, 50.52
2016/05/31 03:38, 50.50
2016/05/31 03:58, 50.53
2016/05/31 04:18, 50.53
2016/05/31 04:38, 50.55
2016/05/31 04:58, 50.52
2016/05/31 05:18, 50.53
2016/05/31 05:38, 50.53
2016/05/31 05:58, 50.53
2016/05/31 06:18, 50.55
2016/05/31 06:38, 50.55
2016/05/31 06:58, 50.54
2016/05/31 07:18, 50.56
2016/05/31 07:38, 50.53
2016/05/31 07:58, 50.55
2016/05/31 08:18, 50.56
2016/05/31 08:38, 50.54
2016/05/31 08:58, 50.56
2016/05/31 09:18, 50.52
2016/05/31 09:38, 50.55
2016/05/31 09:58, 50.55
2016/05/31 10:18, 50.58
2016/05/31 10:38, 50.43
2016/05/31 10:58, 48.34
2016/05/31 11:18, 49.02
2016/05/31 11:38, 46.66
2016/05/31 11:58, 46.28
2016/05/31 12:18, 46.08
2016/05/31 12:38, 46.41
2016/05/31 12:58, 46.26
2016/05/31 13:18, 46.21
2016/05/31 13:38, 46.30
2016/05/31 13:58, 46.77
2016/05/31 14:18, 46.72
2016/05/31 14:38, 46.65
2016/05/31 14:58, 47.26
2016/05/31 15:18, 47.16
2016/05/31 15:38, 47.63